Torna al catalogo

FENGYUN 3C

AttivoMeteoSSO
NORAD 39260·PAYLOAD·🇨🇳 China

Lanciato Sep 23, 2013 da Taiyuan Satellite Launch Center

Loading…

Prossimi Passaggi (prossime 24 ore)

TLE

AggiornatoSource: Space-Track

Epoca: Sep 14, 2026, 14:04 UTC

1 39260U 13052A   26257.58672285  .00000056  00000-0  49733-4 0  9997
2 39260  98.5099 227.4026 0015576 123.4249 236.8417 14.15771639671216

Traccia FENGYUN 3C in tempo reale con AllMySat

Download on the App Store